SARSAT 7 (NOAA 15)

Last updated on Fri Jul 11 2025 00:02:31 GMT+0000 (Coordinated Universal Time)

1 25338U 98030A 25191.59310580 .00000158 00000+0 82576-4 0 9995 2 25338 98.5338 215.9760 0008992 268.2102 91.8049 14.26994495412571
UTC large
Height (km)
Speed (km/s)
/
Latitude / Longitude
Inclination (degrees)
Orbital Period (minutes)
Azimuth
Elevation
Range (km)
Doppler Factor

Next 0 passes for location: London (51.5072 / 0.1276)

Sorry there are no passes over London.